Hourly Data Report for October 13, 2015

All times are specified in Local Standard Time (LST). Add 1 hour to adjust for Daylight Saving Time where and when it is observed.

EUREKA CLIMATE
NUNAVUT

79°59'21.000" N
85°56'02.000" W
10.00 m
2401199
71613
NEK

Download Data

Hourly Data (October 2015)
Hourly Data Report for October 13, 2015
Temp Definition
°C
Dew Point Temp Definition
°C
Rel Hum Definition
%
Wind Dir Definition
10's deg

Wind Spd Definition
km/h
Visibility Definition
km
Stn Press Definition
kPa
Hmdx Definition


Wind Chill Definition


Weather Definition


TIME
00:00 -23.7 -25.7 84 5 1   100.22   -25 LegendNANA
01:00 -23.5 -25.4 84 3 1   100.20   -24 LegendNANA
02:00 -23.0 -24.9 84 10 1   100.19   -24 LegendNANA
03:00 -22.8 -24.7 84 6 1   100.19   -24 LegendNANA
04:00 -22.3 -24.2 85 3 1   100.15   -23 LegendNANA
05:00 -22.3 -24.2 85 10 1   100.16   -23 LegendNANA
06:00 -22.6 -24.5 84 8 1   100.17   -24 LegendNANA
07:00 -22.8 -24.7 84 7 1   100.17   -24 LegendNANA
08:00 -23.0 -25.0 84 8 1   100.16   -24 LegendNANA
09:00 -24.2 -26.3 83 3 1   100.19   -25 LegendNANA
10:00 -23.6 -25.6 84 4 1   100.20   -25 LegendNANA
11:00 -23.8 -25.9 83 5 1   100.22   -25 LegendNANA
12:00 -23.3 -25.3 84 7 1   100.23   -24 LegendNANA
13:00 -23.3 -25.3 83 7 1   100.23   -24 LegendNANA
14:00 -23.3 -25.3 84 6 1   100.24   -24 LegendNANA
15:00 -23.7 -25.7 84 2 1   100.24   -25 LegendNANA
16:00 -23.7 -25.8 82 6 1   100.30   -25 LegendNANA
17:00 -24.0 -26.1 83 2 1   100.33   -25 LegendNANA
18:00 -23.9 -25.8 84 3 1   100.36   -25 LegendNANA
19:00 -24.6 -26.7 83 2 1   100.36   -26 LegendNANA
20:00 -23.8 -25.9 83 6 1   100.40   -25 LegendNANA
21:00 -24.6 -26.7 83 3 1   100.40   -26 LegendNANA
22:00 -24.1 -26.1 83 5 1   100.43   -25 LegendNANA
23:00 -24.1 -26.2 83 4 1   100.45   -25 LegendNANA

Notes on Data Quality.

Legend

  • E = Estimated
  • M = Missing
  • NA = Not Available
  • ‡ = Partner data that is not subject to review by the National Climate Archives
Date modified: